Year,Month,Day,Hour,Minute,Value (Times are PST for windspeed in km/hr)
2005,11,03,00,00,2.10
2005,11,03,00,01,4.60
2005,11,03,00,02,3.90
2005,11,03,00,03,2.30
2005,11,03,00,04,1.60
2005,11,03,00,05,1.70
2005,11,03,00,06,0.40
2005,11,03,00,07,0.20
2005,11,03,00,08,0.30
2005,11,03,00,09,0.10
2005,11,03,00,10,0.00
2005,11,03,00,11,0.00
2005,11,03,00,12,0.00
2005,11,03,00,13,0.00
2005,11,03,00,14,0.00
2005,11,03,00,15,0.30
2005,11,03,00,16,0.20
2005,11,03,00,17,1.30
2005,11,03,00,18,3.20
2005,11,03,00,19,4.00
2005,11,03,00,20,4.10
2005,11,03,00,21,1.90
2005,11,03,00,22,2.50
2005,11,03,00,23,2.90
2005,11,03,00,24,3.30
2005,11,03,00,25,3.60
2005,11,03,00,26,1.80
2005,11,03,00,27,1.50
2005,11,03,00,28,1.70
2005,11,03,00,29,0.60
2005,11,03,00,30,0.30
2005,11,03,00,31,0.00
2005,11,03,00,32,0.00
2005,11,03,00,33,0.00
2005,11,03,00,34,0.50
2005,11,03,00,35,0.30
2005,11,03,00,36,0.00
2005,11,03,00,37,0.00
2005,11,03,00,38,0.00
2005,11,03,00,39,0.00
2005,11,03,00,40,0.00
2005,11,03,00,41,0.00
2005,11,03,00,42,0.00
2005,11,03,00,43,0.00
2005,11,03,00,44,0.00
2005,11,03,00,45,0.00
2005,11,03,00,46,0.00
2005,11,03,00,47,0.00
2005,11,03,00,48,0.00
2005,11,03,00,49,0.00
2005,11,03,00,50,0.30
2005,11,03,00,51,0.20
2005,11,03,00,52,0.30
2005,11,03,00,53,2.10
2005,11,03,00,54,3.00
2005,11,03,00,55,1.80
2005,11,03,00,56,0.50
2005,11,03,00,57,0.00
2005,11,03,00,58,0.00
2005,11,03,00,59,0.00
2005,11,03,01,00,0.00
2005,11,03,01,01,0.00
2005,11,03,01,02,0.00
2005,11,03,01,03,0.00
2005,11,03,01,04,0.00
2005,11,03,01,05,0.10
2005,11,03,01,06,0.00
2005,11,03,01,07,0.00
2005,11,03,01,08,0.40
2005,11,03,01,09,0.20
2005,11,03,01,10,0.80
2005,11,03,01,11,0.80
2005,11,03,01,12,1.40
2005,11,03,01,13,1.90
2005,11,03,01,14,1.60
2005,11,03,01,15,1.00
2005,11,03,01,16,1.10
2005,11,03,01,17,0.40
2005,11,03,01,18,0.10
2005,11,03,01,19,0.00
2005,11,03,01,20,0.00
2005,11,03,01,21,0.00
2005,11,03,01,22,0.00
2005,11,03,01,23,0.00
2005,11,03,01,24,0.00
2005,11,03,01,25,0.00
2005,11,03,01,26,0.00
2005,11,03,01,27,0.00
2005,11,03,01,28,0.00
2005,11,03,01,29,0.00
2005,11,03,01,30,0.00
2005,11,03,01,31,0.00
2005,11,03,01,32,0.00
2005,11,03,01,33,0.00
2005,11,03,01,34,0.00
2005,11,03,01,35,0.00
2005,11,03,01,36,0.00
2005,11,03,01,37,0.00
2005,11,03,01,38,0.00
2005,11,03,01,39,0.00
2005,11,03,01,40,0.00
2005,11,03,01,41,0.00
2005,11,03,01,42,0.00
2005,11,03,01,43,0.00
2005,11,03,01,44,0.00
2005,11,03,01,45,0.00
2005,11,03,01,46,0.00
2005,11,03,01,47,0.00
2005,11,03,01,48,0.00
2005,11,03,01,49,0.00
2005,11,03,01,50,0.00
2005,11,03,01,51,0.00
2005,11,03,01,52,0.00
2005,11,03,01,53,0.00
2005,11,03,01,54,0.00
2005,11,03,01,55,0.00
2005,11,03,01,56,0.00
2005,11,03,01,57,0.00
2005,11,03,01,58,0.00
2005,11,03,01,59,0.00
2005,11,03,02,00,0.00
2005,11,03,02,01,0.00
2005,11,03,02,02,0.00
2005,11,03,02,03,0.00
2005,11,03,02,04,0.00
2005,11,03,02,05,0.00
2005,11,03,02,06,0.00
2005,11,03,02,07,0.00
2005,11,03,02,08,0.00
2005,11,03,02,09,0.00
2005,11,03,02,10,0.00
2005,11,03,02,11,0.00
2005,11,03,02,12,0.00
2005,11,03,02,13,0.00
2005,11,03,02,14,0.00
2005,11,03,02,15,0.00
2005,11,03,02,16,0.00
2005,11,03,02,17,0.00
2005,11,03,02,18,0.00
2005,11,03,02,19,0.00
2005,11,03,02,20,0.00
2005,11,03,02,21,0.20
2005,11,03,02,22,0.20
2005,11,03,02,23,0.00
2005,11,03,02,24,0.00
2005,11,03,02,25,0.00
2005,11,03,02,26,0.00
2005,11,03,02,27,0.00
2005,11,03,02,28,0.00
2005,11,03,02,29,0.00
2005,11,03,02,30,0.00
2005,11,03,02,31,0.00
2005,11,03,02,32,0.00
2005,11,03,02,33,0.00
2005,11,03,02,34,0.00
2005,11,03,02,35,0.00
2005,11,03,02,36,0.00
2005,11,03,02,37,0.00
2005,11,03,02,38,0.00
2005,11,03,02,39,0.00
2005,11,03,02,40,0.00
2005,11,03,02,41,0.00
2005,11,03,02,42,0.00
2005,11,03,02,43,0.00
2005,11,03,02,44,0.00
2005,11,03,02,45,0.20
2005,11,03,02,46,0.40
2005,11,03,02,47,0.70
2005,11,03,02,48,1.60
2005,11,03,02,49,1.30
2005,11,03,02,50,1.60
2005,11,03,02,51,1.50
2005,11,03,02,52,0.70
2005,11,03,02,53,2.10
2005,11,03,02,54,1.70
2005,11,03,02,55,2.60
2005,11,03,02,56,3.10
2005,11,03,02,57,4.90
2005,11,03,02,58,5.10
2005,11,03,02,59,4.30
2005,11,03,03,00,2.20
2005,11,03,03,01,1.70
2005,11,03,03,02,1.60
2005,11,03,03,03,1.20
2005,11,03,03,04,2.00
2005,11,03,03,05,2.30
2005,11,03,03,06,2.80
2005,11,03,03,07,1.60
2005,11,03,03,08,1.80
2005,11,03,03,09,3.90
2005,11,03,03,10,2.40
2005,11,03,03,11,3.20
2005,11,03,03,12,2.50
2005,11,03,03,13,4.10
2005,11,03,03,14,2.90
2005,11,03,03,15,2.70
2005,11,03,03,16,1.70
2005,11,03,03,17,4.60
2005,11,03,03,18,3.90
2005,11,03,03,19,2.90
2005,11,03,03,20,4.10
2005,11,03,03,21,3.50
2005,11,03,03,22,2.00
2005,11,03,03,23,2.00
2005,11,03,03,24,2.50
2005,11,03,03,25,3.90
2005,11,03,03,26,3.20
2005,11,03,03,27,4.30
2005,11,03,03,28,2.90
2005,11,03,03,29,3.60
2005,11,03,03,30,1.50
2005,11,03,03,31,0.10
2005,11,03,03,32,0.30
2005,11,03,03,33,0.60
2005,11,03,03,34,1.40
2005,11,03,03,35,2.50
2005,11,03,03,36,3.80
2005,11,03,03,37,5.80
2005,11,03,03,38,4.90
2005,11,03,03,39,4.30
2005,11,03,03,40,4.00
2005,11,03,03,41,2.50
2005,11,03,03,42,4.00
2005,11,03,03,43,5.10
2005,11,03,03,44,3.70
2005,11,03,03,45,3.50
2005,11,03,03,46,2.70
2005,11,03,03,47,3.00
2005,11,03,03,48,2.10
2005,11,03,03,49,1.20
2005,11,03,03,50,0.80
2005,11,03,03,51,0.30
2005,11,03,03,52,1.40
2005,11,03,03,53,1.40
2005,11,03,03,54,2.60
2005,11,03,03,55,2.30
2005,11,03,03,56,3.90
2005,11,03,03,57,2.50
2005,11,03,03,58,3.20
2005,11,03,03,59,2.40
2005,11,03,04,00,1.90
2005,11,03,04,01,4.70
2005,11,03,04,02,3.50
2005,11,03,04,03,3.00
2005,11,03,04,04,3.20
2005,11,03,04,05,2.40
2005,11,03,04,06,4.20
2005,11,03,04,07,4.80
2005,11,03,04,08,6.30
2005,11,03,04,09,5.40
2005,11,03,04,10,3.20
2005,11,03,04,11,3.50
2005,11,03,04,12,4.90
2005,11,03,04,13,5.60
2005,11,03,04,14,3.90
2005,11,03,04,15,6.20
2005,11,03,04,16,6.40
2005,11,03,04,17,6.10
2005,11,03,04,18,4.80
2005,11,03,04,19,3.80
2005,11,03,04,20,4.50
2005,11,03,04,21,6.30
2005,11,03,04,22,4.80
2005,11,03,04,23,4.80
2005,11,03,04,24,5.30
2005,11,03,04,25,6.90
2005,11,03,04,26,8.00
2005,11,03,04,27,7.70
2005,11,03,04,28,6.50
2005,11,03,04,29,6.80
2005,11,03,04,30,10.20
2005,11,03,04,31,7.70
2005,11,03,04,32,10.10
2005,11,03,04,33,10.30
2005,11,03,04,34,10.10
2005,11,03,04,35,9.30
2005,11,03,04,36,6.70
2005,11,03,04,37,9.40
2005,11,03,04,38,11.40
2005,11,03,04,39,10.90
2005,11,03,04,40,10.60
2005,11,03,04,41,13.80
2005,11,03,04,42,12.40
2005,11,03,04,43,10.80
2005,11,03,04,44,11.80
2005,11,03,04,45,9.70
2005,11,03,04,46,10.50
2005,11,03,04,47,8.80
2005,11,03,04,48,8.10
2005,11,03,04,49,8.10
2005,11,03,04,50,8.90
2005,11,03,04,51,7.70
2005,11,03,04,52,10.10
2005,11,03,04,53,10.30
2005,11,03,04,54,8.90
2005,11,03,04,55,11.30
2005,11,03,04,56,9.70
2005,11,03,04,57,5.70
2005,11,03,04,58,5.00
2005,11,03,04,59,6.80
2005,11,03,05,00,3.10
2005,11,03,05,01,10.10
2005,11,03,05,02,8.00
2005,11,03,05,03,11.70
2005,11,03,05,04,8.30
2005,11,03,05,05,9.30
2005,11,03,05,06,9.60
2005,11,03,05,07,8.40
2005,11,03,05,08,10.90
2005,11,03,05,09,15.00
2005,11,03,05,10,16.30
2005,11,03,05,11,13.90
2005,11,03,05,12,7.50
2005,11,03,05,13,10.00
2005,11,03,05,14,11.60
2005,11,03,05,15,17.50
2005,11,03,05,16,17.00
2005,11,03,05,17,9.10
2005,11,03,05,18,12.50
2005,11,03,05,19,14.30
2005,11,03,05,20,12.50
2005,11,03,05,21,13.60
2005,11,03,05,22,11.00
2005,11,03,05,23,10.70
2005,11,03,05,24,9.60
2005,11,03,05,25,9.60
2005,11,03,05,26,12.30
2005,11,03,05,27,12.00
2005,11,03,05,28,17.90
2005,11,03,05,29,17.50
2005,11,03,05,30,11.80
2005,11,03,05,31,12.60
2005,11,03,05,32,12.30
2005,11,03,05,33,18.70
2005,11,03,05,34,23.60
2005,11,03,05,35,23.00
2005,11,03,05,36,19.50
2005,11,03,05,37,21.30
2005,11,03,05,38,20.70
2005,11,03,05,39,15.10
2005,11,03,05,40,21.80
2005,11,03,05,41,22.90
2005,11,03,05,42,19.40
2005,11,03,05,43,19.90
2005,11,03,05,44,15.40
2005,11,03,05,45,23.70
2005,11,03,05,46,19.30
2005,11,03,05,47,22.00
2005,11,03,05,48,13.60
2005,11,03,05,49,17.90
2005,11,03,05,50,15.80
2005,11,03,05,51,16.70
2005,11,03,05,52,12.90
2005,11,03,05,53,19.20
2005,11,03,05,54,24.90
2005,11,03,05,55,20.80
2005,11,03,05,56,20.80
2005,11,03,05,57,20.30
2005,11,03,05,58,28.10
2005,11,03,05,59,23.10
2005,11,03,06,00,20.00
2005,11,03,06,01,28.50
2005,11,03,06,02,19.30
2005,11,03,06,03,19.00
2005,11,03,06,04,24.30
2005,11,03,06,05,32.40
2005,11,03,06,06,23.60
2005,11,03,06,07,16.70
2005,11,03,06,08,19.90
2005,11,03,06,09,19.80
2005,11,03,06,10,23.20
2005,11,03,06,11,22.00
2005,11,03,06,12,18.60
2005,11,03,06,13,18.50
2005,11,03,06,14,25.30
2005,11,03,06,15,23.40
2005,11,03,06,16,28.60
2005,11,03,06,17,20.50
2005,11,03,06,18,21.20
2005,11,03,06,19,23.30
2005,11,03,06,20,25.10
2005,11,03,06,21,20.50
2005,11,03,06,22,26.50
2005,11,03,06,23,22.30
2005,11,03,06,24,23.50
2005,11,03,06,25,23.30
2005,11,03,06,26,24.90
2005,11,03,06,27,22.50
2005,11,03,06,28,23.30
2005,11,03,06,29,24.80
2005,11,03,06,30,27.40
2005,11,03,06,31,18.30
2005,11,03,06,32,22.20
2005,11,03,06,33,22.60
2005,11,03,06,34,15.80
2005,11,03,06,35,19.60
2005,11,03,06,36,21.80
2005,11,03,06,37,24.20
2005,11,03,06,38,19.50
2005,11,03,06,39,20.40
2005,11,03,06,40,18.80
2005,11,03,06,41,19.70
2005,11,03,06,42,23.60
2005,11,03,06,43,22.20
2005,11,03,06,44,19.20
2005,11,03,06,45,21.50
2005,11,03,06,46,23.90
2005,11,03,06,47,24.50
2005,11,03,06,48,17.70
2005,11,03,06,49,18.90
2005,11,03,06,50,24.30
2005,11,03,06,51,19.00
2005,11,03,06,52,22.00
2005,11,03,06,53,19.70
2005,11,03,06,54,18.90
2005,11,03,06,55,25.50
2005,11,03,06,56,23.90
2005,11,03,06,57,25.10
2005,11,03,06,58,18.40
2005,11,03,06,59,21.60
2005,11,03,07,00,20.00
2005,11,03,07,01,26.40
2005,11,03,07,02,24.10
2005,11,03,07,03,20.20
2005,11,03,07,04,27.40
2005,11,03,07,05,23.40
2005,11,03,07,06,20.10
2005,11,03,07,07,23.30
2005,11,03,07,08,20.30
2005,11,03,07,09,26.30
2005,11,03,07,10,26.50
2005,11,03,07,11,18.30
2005,11,03,07,12,19.00
2005,11,03,07,13,26.60
2005,11,03,07,14,28.80
2005,11,03,07,15,22.90
2005,11,03,07,16,24.90
2005,11,03,07,17,25.90
2005,11,03,07,18,26.30
2005,11,03,07,19,24.40
2005,11,03,07,20,33.20
2005,11,03,07,21,35.40
2005,11,03,07,22,35.40
2005,11,03,07,23,30.60
2005,11,03,07,24,28.60
2005,11,03,07,25,30.70
2005,11,03,07,26,26.30
2005,11,03,07,27,16.80
2005,11,03,07,28,16.10
2005,11,03,07,29,16.10
2005,11,03,07,30,16.10
2005,11,03,07,31,30.10
2005,11,03,07,32,29.60
2005,11,03,07,33,28.70
2005,11,03,07,34,31.20
2005,11,03,07,35,27.50
2005,11,03,07,36,23.50
2005,11,03,07,37,21.10
2005,11,03,07,38,30.20
2005,11,03,07,39,26.10
2005,11,03,07,40,26.40
2005,11,03,07,41,26.10
2005,11,03,07,42,24.70
2005,11,03,07,43,22.90
2005,11,03,07,44,23.50
2005,11,03,07,45,22.50
2005,11,03,07,46,21.80
2005,11,03,07,47,30.70
2005,11,03,07,48,28.40
2005,11,03,07,49,32.50
2005,11,03,07,50,28.40
2005,11,03,07,51,41.40
2005,11,03,07,52,33.50
2005,11,03,07,53,29.50
2005,11,03,07,54,30.70
2005,11,03,07,55,35.60
2005,11,03,07,56,45.70
2005,11,03,07,57,33.30
2005,11,03,07,58,38.70
2005,11,03,07,59,36.50
2005,11,03,08,00,26.50
2005,11,03,08,01,27.10
2005,11,03,08,02,26.30
2005,11,03,08,03,27.10
2005,11,03,08,04,26.90
2005,11,03,08,05,27.80
2005,11,03,08,06,27.90
2005,11,03,08,07,33.80
2005,11,03,08,08,34.40
2005,11,03,08,09,36.50
2005,11,03,08,10,32.40
2005,11,03,08,11,27.20
2005,11,03,08,12,40.00
2005,11,03,08,13,37.90
2005,11,03,08,14,26.30
2005,11,03,08,15,36.00
2005,11,03,08,16,28.30
2005,11,03,08,17,32.10
2005,11,03,08,18,29.40
2005,11,03,08,19,29.20
2005,11,03,08,20,23.30
2005,11,03,08,21,33.20
2005,11,03,08,22,19.20
2005,11,03,08,23,32.10
2005,11,03,08,24,26.40
2005,11,03,08,25,32.90
2005,11,03,08,26,34.60
2005,11,03,08,27,33.20
2005,11,03,08,28,28.20
2005,11,03,08,29,23.70
2005,11,03,08,30,27.80
2005,11,03,08,31,27.90
2005,11,03,08,32,31.10
2005,11,03,08,33,27.80
2005,11,03,08,34,28.60
2005,11,03,08,35,27.50
2005,11,03,08,36,41.10
2005,11,03,08,37,28.70
2005,11,03,08,38,33.00
2005,11,03,08,39,28.50
2005,11,03,08,40,35.60
2005,11,03,08,41,37.90
2005,11,03,08,42,27.50
2005,11,03,08,43,30.40
2005,11,03,08,44,27.50
2005,11,03,08,45,31.10
2005,11,03,08,46,36.10
2005,11,03,08,47,30.70
2005,11,03,08,48,23.70
2005,11,03,08,49,27.10
2005,11,03,08,50,33.60
2005,11,03,08,51,27.80
2005,11,03,08,52,31.40
2005,11,03,08,53,35.40
2005,11,03,08,54,29.30
2005,11,03,08,55,35.50
2005,11,03,08,56,23.50
2005,11,03,08,57,27.20
2005,11,03,08,58,28.20
2005,11,03,08,59,26.90
2005,11,03,09,00,27.80
2005,11,03,09,01,24.90
2005,11,03,09,02,22.50
2005,11,03,09,03,22.50
2005,11,03,09,04,22.50
2005,11,03,09,05,23.80
2005,11,03,09,06,30.70
2005,11,03,09,07,27.00
2005,11,03,09,08,30.60
2005,11,03,09,09,28.90
2005,11,03,09,10,23.90
2005,11,03,09,11,28.50
2005,11,03,09,12,31.30
2005,11,03,09,13,25.70
2005,11,03,09,14,25.70
2005,11,03,09,15,25.70
2005,11,03,09,16,25.70
2005,11,03,09,17,25.90
2005,11,03,09,18,30.70
2005,11,03,09,19,28.40
2005,11,03,09,20,23.60
2005,11,03,09,21,28.00
2005,11,03,09,22,20.80
2005,11,03,09,23,29.50
2005,11,03,09,24,26.20
2005,11,03,09,25,30.10
2005,11,03,09,26,31.10
2005,11,03,09,27,30.20
2005,11,03,09,28,29.80
2005,11,03,09,29,34.90
2005,11,03,09,30,31.70
2005,11,03,09,31,29.50
2005,11,03,09,32,29.00
2005,11,03,09,33,25.20
2005,11,03,09,34,30.50
2005,11,03,09,35,29.30
2005,11,03,09,36,27.40
2005,11,03,09,37,26.20
2005,11,03,09,38,25.60
2005,11,03,09,39,28.20
2005,11,03,09,40,28.20
2005,11,03,09,41,25.90
2005,11,03,09,42,27.50
2005,11,03,09,43,24.00
2005,11,03,09,44,23.80
2005,11,03,09,45,26.60
2005,11,03,09,46,23.20
2005,11,03,09,47,26.50
2005,11,03,09,48,25.70
2005,11,03,09,49,29.10
2005,11,03,09,50,27.90
2005,11,03,09,51,21.90
2005,11,03,09,52,22.50
2005,11,03,09,53,28.10
2005,11,03,09,54,28.60
2005,11,03,09,55,30.70
2005,11,03,09,56,32.60
2005,11,03,09,57,23.30
2005,11,03,09,58,25.70
2005,11,03,09,59,29.50
2005,11,03,10,00,25.70
2005,11,03,10,01,21.40
2005,11,03,10,02,28.10
2005,11,03,10,03,23.00
2005,11,03,10,04,26.60
2005,11,03,10,05,31.70
2005,11,03,10,06,32.00
2005,11,03,10,07,28.10
2005,11,03,10,08,23.60
2005,11,03,10,09,30.90
2005,11,03,10,10,28.20
2005,11,03,10,11,33.80
2005,11,03,10,12,33.80
2005,11,03,10,13,27.50
2005,11,03,10,14,26.20
2005,11,03,10,15,29.30
2005,11,03,10,16,24.60
2005,11,03,10,17,30.70
2005,11,03,10,18,23.70
2005,11,03,10,19,30.10
2005,11,03,10,20,26.20
2005,11,03,10,21,21.00
2005,11,03,10,22,26.20
2005,11,03,10,23,26.60
2005,11,03,10,24,22.20
2005,11,03,10,25,21.00
2005,11,03,10,26,17.10
2005,11,03,10,27,30.50
2005,11,03,10,28,31.50
2005,11,03,10,29,33.30
2005,11,03,10,30,26.30
2005,11,03,10,31,21.10
2005,11,03,10,32,25.30
2005,11,03,10,33,31.70
2005,11,03,10,34,25.50
2005,11,03,10,35,20.80
2005,11,03,10,36,27.60
2005,11,03,10,37,28.10
2005,11,03,10,38,21.00
2005,11,03,10,39,23.70
2005,11,03,10,40,20.60
2005,11,03,10,41,20.80
2005,11,03,10,42,26.80
2005,11,03,10,43,28.50
2005,11,03,10,44,26.90
2005,11,03,10,45,30.00
2005,11,03,10,46,23.30
2005,11,03,10,47,25.70
2005,11,03,10,48,28.20
2005,11,03,10,49,31.90
2005,11,03,10,50,24.90
2005,11,03,10,51,30.00
2005,11,03,10,52,26.70
2005,11,03,10,53,21.80
2005,11,03,10,54,23.60
2005,11,03,10,55,22.50
2005,11,03,10,56,16.40
2005,11,03,10,57,24.10
2005,11,03,10,58,22.00
2005,11,03,10,59,28.50
2005,11,03,11,00,23.70
2005,11,03,11,01,17.00
2005,11,03,11,02,16.70
2005,11,03,11,03,25.50
2005,11,03,11,04,21.20
2005,11,03,11,05,30.60
2005,11,03,11,06,20.70
2005,11,03,11,07,18.00
2005,11,03,11,08,18.40
2005,11,03,11,09,29.90
2005,11,03,11,10,21.00
2005,11,03,11,11,16.50
2005,11,03,11,12,22.20
2005,11,03,11,13,19.90
2005,11,03,11,14,22.60
2005,11,03,11,15,26.10
2005,11,03,11,16,25.70
2005,11,03,11,17,19.80
2005,11,03,11,18,21.70
2005,11,03,11,19,27.40
2005,11,03,11,20,20.40
2005,11,03,11,21,20.40
2005,11,03,11,22,17.70
2005,11,03,11,23,20.90
2005,11,03,11,24,23.90
2005,11,03,11,25,14.60
2005,11,03,11,26,24.10
2005,11,03,11,27,26.10
2005,11,03,11,28,22.60
2005,11,03,11,29,18.80
2005,11,03,11,30,13.40
2005,11,03,11,31,20.70
2005,11,03,11,32,20.80
2005,11,03,11,33,23.70
2005,11,03,11,34,15.40
2005,11,03,11,35,20.10
2005,11,03,11,36,26.50
2005,11,03,11,37,25.50
2005,11,03,11,38,18.70
2005,11,03,11,39,14.90
2005,11,03,11,40,14.70
2005,11,03,11,41,14.40
2005,11,03,11,42,22.40
2005,11,03,11,43,22.70
2005,11,03,11,44,16.60
2005,11,03,11,45,16.50
2005,11,03,11,46,22.20
2005,11,03,11,47,22.90
2005,11,03,11,48,21.80
2005,11,03,11,49,24.40
2005,11,03,11,50,14.70
2005,11,03,11,51,16.30
2005,11,03,11,52,16.30
2005,11,03,11,53,15.50
2005,11,03,11,54,19.30
2005,11,03,11,55,12.10
2005,11,03,11,56,9.70
2005,11,03,11,57,15.10
2005,11,03,11,58,13.40
2005,11,03,11,59,19.60
2005,11,03,12,00,26.70
2005,11,03,12,01,20.00
2005,11,03,12,02,17.00
2005,11,03,12,03,15.40
2005,11,03,12,04,19.80
2005,11,03,12,05,18.50
2005,11,03,12,06,15.10
2005,11,03,12,07,9.60
2005,11,03,12,08,9.60
2005,11,03,12,09,14.90
2005,11,03,12,10,9.20
2005,11,03,12,11,18.80
2005,11,03,12,12,16.60
2005,11,03,12,13,13.60
2005,11,03,12,14,16.30
2005,11,03,12,15,18.30
2005,11,03,12,16,19.60
2005,11,03,12,17,20.70
2005,11,03,12,18,19.80
2005,11,03,12,19,14.70
2005,11,03,12,20,14.20
2005,11,03,12,21,14.50
2005,11,03,12,22,14.50
2005,11,03,12,23,14.90
2005,11,03,12,24,14.30
2005,11,03,12,25,13.90
2005,11,03,12,26,10.10
2005,11,03,12,27,13.50
2005,11,03,12,28,9.90
2005,11,03,12,29,20.70
2005,11,03,12,30,17.50
2005,11,03,12,31,14.60
2005,11,03,12,32,11.40
2005,11,03,12,33,6.40
2005,11,03,12,34,10.20
2005,11,03,12,35,14.60
2005,11,03,12,36,12.40
2005,11,03,12,37,11.10
2005,11,03,12,38,8.00
2005,11,03,12,39,8.80
2005,11,03,12,40,8.90
2005,11,03,12,41,12.90
2005,11,03,12,42,11.90
2005,11,03,12,43,10.10
2005,11,03,12,44,15.00
2005,11,03,12,45,15.70
2005,11,03,12,46,16.90
2005,11,03,12,47,13.20
2005,11,03,12,48,12.30
2005,11,03,12,49,10.00
2005,11,03,12,50,5.30
2005,11,03,12,51,6.00
2005,11,03,12,52,9.30
2005,11,03,12,53,9.90
2005,11,03,12,54,10.50
2005,11,03,12,55,8.10
2005,11,03,12,56,6.40
2005,11,03,12,57,6.40
2005,11,03,12,58,8.60
2005,11,03,12,59,8.30
2005,11,03,13,00,7.00
2005,11,03,13,01,13.80
2005,11,03,13,02,12.20
2005,11,03,13,03,10.20
2005,11,03,13,04,9.30
2005,11,03,13,05,6.00
2005,11,03,13,06,13.60
2005,11,03,13,07,5.40
2005,11,03,13,08,4.60
2005,11,03,13,09,5.60
2005,11,03,13,10,4.40
2005,11,03,13,11,6.80
2005,11,03,13,12,6.30
2005,11,03,13,13,6.80
2005,11,03,13,14,5.10
2005,11,03,13,15,4.80
2005,11,03,13,16,7.60
2005,11,03,13,17,13.20
2005,11,03,13,18,7.90
2005,11,03,13,19,12.90
2005,11,03,13,20,11.50
2005,11,03,13,21,7.30
2005,11,03,13,22,4.60
2005,11,03,13,23,7.60
2005,11,03,13,24,4.90
2005,11,03,13,25,8.70
2005,11,03,13,26,7.10
2005,11,03,13,27,7.50
2005,11,03,13,28,6.40
2005,11,03,13,29,6.40
2005,11,03,13,30,5.70
2005,11,03,13,31,5.50
2005,11,03,13,32,6.40
2005,11,03,13,33,4.30
2005,11,03,13,34,6.40
2005,11,03,13,35,6.80
2005,11,03,13,36,4.90
2005,11,03,13,37,5.40
2005,11,03,13,38,6.90
2005,11,03,13,39,5.20
2005,11,03,13,40,7.00
2005,11,03,13,41,4.80
2005,11,03,13,42,2.80
2005,11,03,13,43,3.50
2005,11,03,13,44,4.60
2005,11,03,13,45,1.20
2005,11,03,13,46,1.40
2005,11,03,13,47,3.90
2005,11,03,13,48,2.80
2005,11,03,13,49,3.70
2005,11,03,13,50,3.80
2005,11,03,13,51,3.90
2005,11,03,13,52,4.80
2005,11,03,13,53,2.50
2005,11,03,13,54,3.60
2005,11,03,13,55,5.30
2005,11,03,13,56,3.50
2005,11,03,13,57,4.20
2005,11,03,13,58,3.50
2005,11,03,13,59,2.30
2005,11,03,14,00,1.20
2005,11,03,14,01,2.10
2005,11,03,14,02,5.20
2005,11,03,14,03,3.10
2005,11,03,14,04,3.40
2005,11,03,14,05,3.50
2005,11,03,14,06,2.20
2005,11,03,14,07,2.70
2005,11,03,14,08,6.20
2005,11,03,14,09,4.90
2005,11,03,14,10,4.60
2005,11,03,14,11,0.40
2005,11,03,14,12,1.30
2005,11,03,14,13,4.20
2005,11,03,14,14,4.20
2005,11,03,14,15,2.00
2005,11,03,14,16,3.00
2005,11,03,14,17,3.70
2005,11,03,14,18,2.60
2005,11,03,14,19,3.80
2005,11,03,14,20,4.10
2005,11,03,14,21,6.30
2005,11,03,14,22,7.10
2005,11,03,14,23,7.20
2005,11,03,14,24,6.80
2005,11,03,14,25,4.10
2005,11,03,14,26,6.40
2005,11,03,14,27,8.60
2005,11,03,14,28,3.80
2005,11,03,14,29,6.90
2005,11,03,14,30,12.50
2005,11,03,14,31,7.40
2005,11,03,14,32,7.80
2005,11,03,14,33,10.60
2005,11,03,14,34,6.00
2005,11,03,14,35,6.70
2005,11,03,14,36,6.20
2005,11,03,14,37,10.10
2005,11,03,14,38,5.30
2005,11,03,14,39,5.60
2005,11,03,14,40,5.60
2005,11,03,14,41,7.50
2005,11,03,14,42,7.80
2005,11,03,14,43,6.80
2005,11,03,14,44,5.90
2005,11,03,14,45,5.60
2005,11,03,14,46,10.50
2005,11,03,14,47,11.50
2005,11,03,14,48,12.30
2005,11,03,14,49,7.90
2005,11,03,14,50,7.20
2005,11,03,14,51,8.10
2005,11,03,14,52,10.90
2005,11,03,14,53,9.40
2005,11,03,14,54,7.30
2005,11,03,14,55,11.80
2005,11,03,14,56,8.60
2005,11,03,14,57,9.80
2005,11,03,14,58,5.80
2005,11,03,14,59,11.10
2005,11,03,15,00,10.10
2005,11,03,15,01,10.20
2005,11,03,15,02,13.70
2005,11,03,15,03,8.30
2005,11,03,15,04,8.40
2005,11,03,15,05,7.90
2005,11,03,15,06,12.60
2005,11,03,15,07,4.80
2005,11,03,15,08,8.10
2005,11,03,15,09,9.40
2005,11,03,15,10,8.10
2005,11,03,15,11,8.10
2005,11,03,15,12,8.10
2005,11,03,15,13,8.10
2005,11,03,15,14,14.50
2005,11,03,15,15,6.60
2005,11,03,15,16,11.30
2005,11,03,15,17,11.60
2005,11,03,15,18,16.30
2005,11,03,15,19,12.50
2005,11,03,15,20,15.20
2005,11,03,15,21,8.50
2005,11,03,15,22,10.60
2005,11,03,15,23,7.60
2005,11,03,15,24,9.10
2005,11,03,15,25,13.90
2005,11,03,15,26,7.50
2005,11,03,15,27,9.50
2005,11,03,15,28,7.90
2005,11,03,15,29,9.80
2005,11,03,15,30,10.70
2005,11,03,15,31,12.90
2005,11,03,15,32,15.40
2005,11,03,15,33,16.10
2005,11,03,15,34,16.10
2005,11,03,15,35,16.30
2005,11,03,15,36,12.20
2005,11,03,15,37,11.90
2005,11,03,15,38,10.90
2005,11,03,15,39,12.10
2005,11,03,15,40,8.50
2005,11,03,15,41,12.40
2005,11,03,15,42,18.30
2005,11,03,15,43,13.60
2005,11,03,15,44,13.10
2005,11,03,15,45,7.50
2005,11,03,15,46,5.80
2005,11,03,15,47,8.80
2005,11,03,15,48,10.80
2005,11,03,15,49,14.20
2005,11,03,15,50,8.40
2005,11,03,15,51,7.70
2005,11,03,15,52,9.60
2005,11,03,15,53,13.00
2005,11,03,15,54,13.80
2005,11,03,15,55,13.00
2005,11,03,15,56,8.80
2005,11,03,15,57,15.50
2005,11,03,15,58,12.70
2005,11,03,15,59,4.80
2005,11,03,16,00,4.80
2005,11,03,16,01,4.80
2005,11,03,16,02,4.80
2005,11,03,16,03,5.80
2005,11,03,16,04,14.80
2005,11,03,16,05,8.00
2005,11,03,16,06,10.20
2005,11,03,16,07,13.00
2005,11,03,16,08,11.70
2005,11,03,16,09,13.40
2005,11,03,16,10,17.50
2005,11,03,16,11,15.40
2005,11,03,16,12,13.20
2005,11,03,16,13,13.60
2005,11,03,16,14,8.90
2005,11,03,16,15,16.70
2005,11,03,16,16,11.00
2005,11,03,16,17,7.50
2005,11,03,16,18,10.10
2005,11,03,16,19,8.60
2005,11,03,16,20,10.90
2005,11,03,16,21,13.30
2005,11,03,16,22,9.00
2005,11,03,16,23,12.60
2005,11,03,16,24,16.10
2005,11,03,16,25,13.80
2005,11,03,16,26,8.60
2005,11,03,16,27,9.60
2005,11,03,16,28,10.00
2005,11,03,16,29,8.80
2005,11,03,16,30,8.10
2005,11,03,16,31,8.10
2005,11,03,16,32,9.00
2005,11,03,16,33,9.30
2005,11,03,16,34,8.90
2005,11,03,16,35,9.70
2005,11,03,16,36,13.10
2005,11,03,16,37,10.50
2005,11,03,16,38,17.50
2005,11,03,16,39,12.30
2005,11,03,16,40,11.50
2005,11,03,16,41,10.40
2005,11,03,16,42,9.00
2005,11,03,16,43,7.60
2005,11,03,16,44,11.40
2005,11,03,16,45,10.90
2005,11,03,16,46,8.40
2005,11,03,16,47,7.20
2005,11,03,16,48,8.50
2005,11,03,16,49,9.60
2005,11,03,16,50,13.00
2005,11,03,16,51,11.90
2005,11,03,16,52,16.90
2005,11,03,16,53,9.70
2005,11,03,16,54,14.00
2005,11,03,16,55,17.70
2005,11,03,16,56,17.70
2005,11,03,16,57,16.70
2005,11,03,16,58,13.10
2005,11,03,16,59,10.10
2005,11,03,17,00,7.30
2005,11,03,17,01,9.80
2005,11,03,17,02,8.70
2005,11,03,17,03,9.40
2005,11,03,17,04,14.40
2005,11,03,17,05,14.20
2005,11,03,17,06,17.40
2005,11,03,17,07,18.10
2005,11,03,17,08,9.20
2005,11,03,17,09,6.80
2005,11,03,17,10,8.60
2005,11,03,17,11,9.60
2005,11,03,17,12,9.60
2005,11,03,17,13,9.60
2005,11,03,17,14,9.60
2005,11,03,17,15,9.60
2005,11,03,17,16,11.40
2005,11,03,17,17,11.70
2005,11,03,17,18,8.50
2005,11,03,17,19,6.30
2005,11,03,17,20,9.50
2005,11,03,17,21,7.40
2005,11,03,17,22,7.50
2005,11,03,17,23,9.90
2005,11,03,17,24,5.30
2005,11,03,17,25,7.10
2005,11,03,17,26,8.20
2005,11,03,17,27,9.30
2005,11,03,17,28,5.30
2005,11,03,17,29,7.50
2005,11,03,17,30,9.70
2005,11,03,17,31,6.80
2005,11,03,17,32,7.30
2005,11,03,17,33,7.20
2005,11,03,17,34,10.60
2005,11,03,17,35,8.60
2005,11,03,17,36,7.70
2005,11,03,17,37,6.50
2005,11,03,17,38,9.60
2005,11,03,17,39,13.00
2005,11,03,17,40,7.30
2005,11,03,17,41,11.80